This demonstration page uses our WeatherBlox Daily Observations layout. Learn more.

Left ArrowRight Arrow

Hourly Observations for August 28, 2022

Temp ( °F °C ) Dew Point ( °F °C ) Humidity (%) Winds ( mph kmh ) Pressure ( in mb ) Visibility ( mi km ) Precip ( " mm )
12:55 am 00:55 Mostly Cloudy 70 21.2 67 19.3 89 89 ESE 5 7 29.75 1007 10 16 0.00 0.00
1:55 am 01:55 Cloudy 71 21.6 67 19.5 88 88 SE 7 11 29.74 1007 10 16 0.00 0.00
2:55 am 02:55 Partly Cloudy 71 21.8 67 19.5 87 87 SSE 8 13 29.73 1007 10 16 0.00 0.00
3:55 am 03:55 Clear 71 21.6 67 19.3 87 87 SSE 9 15 29.72 1006 10 16 0.00 0.00
4:55 am 04:55 Clear 71 21.5 66 19 86 86 S 8 13 29.72 1006 10 16 0.00 0.00
5:55 am 05:55 Mostly Clear 70 21.2 66 18.9 87 87 SSE 7 11 29.72 1006 10 16 0.00 0.00
6:55 am 06:55 Sunny 70 21.2 65 18.6 85 85 SSE 9 15 29.75 1007 10 16 0.00 0.00
7:55 am 07:55 Sunny 71 21.7 66 18.7 83 83 SSE 9 15 29.74 1007 10 16 0.00 0.00
8:55 am 08:55 Sunny 74 23.4 66 18.9 76 76 S 15 24 29.72 1007 10 16 0.00 0.00
9:55 am 09:55 Sunny 77 25 68 20 74 74 S 17 28 29.71 1006 10 16 0.00 0.00
10:55 am 10:55 Partly Cloudy 80 26.4 69 20.7 71 71 SSW 14 22 29.71 1006 10 16 0.00 0.00
11:55 am 11:55 Mostly Sunny 83 28.1 71 21.4 67 67 S 17 28 29.70 1006 10 16 0.00 0.00
12:55 pm 12:55 Mostly Sunny 86 29.8 72 22 63 63 S 18 30 29.67 1005 10 16 0.00 0.00
1:55 pm 13:55 Mostly Sunny 87 30.8 71 21.8 59 59 S 16 26 29.67 1005 10 16 0.00 0.00
2:55 pm 14:55 Mostly Sunny 90 32.1 71 21.9 55 55 S 18 30 29.64 1004 10 16 0.00 0.00
3:55 pm 15:55 Sunny 91 33 72 22.1 53 53 S 16 26 29.62 1003 10 16 0.00 0.00
4:55 pm 16:55 Sunny 93 33.8 71 21.9 50 50 S 14 22 29.61 1003 10 16 0.00 0.00
5:55 pm 17:55 Sunny 93 34 70 21 47 47 SSW 13 20 29.61 1003 10 16 0.00 0.00
6:55 pm 18:55 Sunny 89 31.9 76 24.2 64 64 SSE 9 15 29.62 1003 10 16 0.00 0.00
7:55 pm 19:55 Sunny 86 29.8 75 23.9 71 71 SE 6 9 29.65 1004 10 16 0.00 0.00
8:55 pm 20:55 Clear 82 27.6 74 23.6 79 79 SE 5 7 29.67 1005 10 16 0.00 0.00
9:55 pm 21:55 Clear 80 26.4 74 23.2 83 83 SE 5 7 29.68 1005 10 16 0.00 0.00
10:55 pm 22:55 Clear 79 25.9 73 23 84 84 E 3 6 29.70 1006 10 16 0.00 0.00
11:55 pm 23:55 Clear 77 25.2 73 23 88 88 Calm 29.71 1006 10 16 0.00 0.00

Powered by AerisWeather